Location: La Trinit�
(48.1620°N, 3.4512°W)
Time: 18:43:56
(UTC+00:00)

SL-24 R/B - RUBIN 2 - Pass Details

Date: 08 May 2021
Orbit: 583 x 1012 km, 64.6° (Epoch: 21 June)

Event Time Altitude Azimuth Distance (km) Brightness Sun altitude
Rises 23:28:53 0° 320° (NW) 3,430 8.3 -23.8°
Reaches altitude 10° 23:31:30 10° 319° (NW) 2,422 7.4 -23.9°
Maximum altitude 23:37:02 77° 235° (SW) 769 3.8 -24.1°
Enters shadow 23:37:29 71° 186° (S) 785 3.8 -24.1°
